Time,TemperatureF,DewpointF,PressureIn,WindDirection,WindDirectionDegrees,WindSpeedMPH,WindSpeedGustMPH,Humidity,HourlyPrecipIn,Conditions,Clouds,dailyrainin,SoftwareType,DateUTC
2013-01-27 00:01:00,47.0,46.0,-100.00,South,182,4.0,7.0,98,-99.99,,,-99.99,,2013-01-27 08:01:00,
2013-01-27 00:11:00,47.0,46.0,-100.00,SSE,147,4.0,8.0,98,-99.99,,,-99.99,,2013-01-27 08:11:00,
2013-01-27 00:21:00,47.0,46.0,-100.00,South,185,5.0,9.0,98,-99.99,,,-99.99,,2013-01-27 08:21:00,
2013-01-27 00:31:00,47.0,46.0,-100.00,South,184,5.0,9.0,98,-99.99,,,-99.99,,2013-01-27 08:31:00,
2013-01-27 00:41:00,47.0,46.0,-100.00,SSW,197,4.0,8.0,98,-99.99,,,-99.99,,2013-01-27 08:41:00,
2013-01-27 00:52:00,47.0,46.0,-100.00,SSW,204,4.0,8.0,98,-99.99,,,-99.99,,2013-01-27 08:52:00,
2013-01-27 01:02:00,47.0,46.0,-100.00,SSW,196,5.0,11.0,98,-99.99,,,-99.99,,2013-01-27 09:02:00,
2013-01-27 01:11:00,47.0,46.0,-100.00,SSW,199,6.0,10.0,98,-99.99,,,-99.99,,2013-01-27 09:11:00,
2013-01-27 01:21:00,47.0,46.0,-100.00,SSW,205,5.0,11.0,98,-99.99,,,-99.99,,2013-01-27 09:21:00,
2013-01-27 01:31:00,47.0,46.0,-100.00,SW,231,4.0,11.0,98,-99.99,,,-99.99,,2013-01-27 09:31:00,
2013-01-27 01:41:00,47.0,46.0,-100.00,WSW,253,4.0,9.0,98,-99.99,,,-99.99,,2013-01-27 09:41:00,
2013-01-27 01:51:00,47.0,46.0,-100.00,SW,218,2.0,6.0,98,-99.99,,,-99.99,,2013-01-27 09:51:00,
2013-01-27 02:01:00,47.0,46.0,-100.00,SSW,195,3.0,6.0,98,-99.99,,,-99.99,,2013-01-27 10:01:00,
2013-01-27 02:11:00,47.0,46.0,-100.00,SSW,209,3.0,5.0,98,-99.99,,,-99.99,,2013-01-27 10:11:00,
2013-01-27 02:21:00,47.0,46.0,-100.00,SW,215,3.0,7.0,98,-99.99,,,-99.99,,2013-01-27 10:21:00,
2013-01-27 02:31:00,47.0,46.0,-100.00,SW,227,3.0,7.0,98,-99.99,,,-99.99,,2013-01-27 10:31:00,
2013-01-27 02:41:00,47.0,46.0,-100.00,SW,236,4.0,8.0,98,-99.99,,,-99.99,,2013-01-27 10:41:00,
2013-01-27 02:51:00,46.0,45.0,-100.00,SSW,203,4.0,9.0,98,-99.99,,,-99.99,,2013-01-27 10:51:00,
2013-01-27 03:01:00,46.0,45.0,-100.00,South,189,6.0,9.0,98,-99.99,,,-99.99,,2013-01-27 11:01:00,
2013-01-27 03:11:00,46.0,45.0,-100.00,SSW,197,5.0,10.0,98,-99.99,,,-99.99,,2013-01-27 11:11:00,
2013-01-27 03:21:00,46.0,45.0,-100.00,SSW,192,7.0,12.0,98,-99.99,,,-99.99,,2013-01-27 11:21:00,
2013-01-27 03:32:00,46.0,45.0,-100.00,SSW,195,7.0,11.0,98,-99.99,,,-99.99,,2013-01-27 11:32:00,
2013-01-27 03:42:00,46.0,45.0,-100.00,SSW,200,4.0,7.0,98,-99.99,,,-99.99,,2013-01-27 11:42:00,
2013-01-27 03:52:00,46.0,45.0,-100.00,South,186,6.0,10.0,98,-99.99,,,-99.99,,2013-01-27 11:52:00,
2013-01-27 04:02:00,46.0,45.0,-100.00,SSW,192,7.0,12.0,98,-99.99,,,-99.99,,2013-01-27 12:02:00,
2013-01-27 04:11:00,46.0,45.0,-100.00,SSW,193,7.0,10.0,98,-99.99,,,-99.99,,2013-01-27 12:11:00,
2013-01-27 04:21:00,46.0,45.0,-100.00,SSW,196,6.0,10.0,98,-99.99,,,-99.99,,2013-01-27 12:21:00,
2013-01-27 04:32:00,45.0,44.0,-100.00,SSW,195,6.0,10.0,98,-99.99,,,-99.99,,2013-01-27 12:32:00,
2013-01-27 04:42:00,45.0,44.0,-100.00,SSW,195,6.0,10.0,98,-99.99,,,-99.99,,2013-01-27 12:42:00,
2013-01-27 04:52:00,45.0,44.0,-100.00,South,190,5.0,10.0,98,-99.99,,,-99.99,,2013-01-27 12:52:00,
2013-01-27 05:01:00,45.0,44.0,-100.00,SSE,155,2.0,6.0,98,-99.99,,,-99.99,,2013-01-27 13:01:00,
2013-01-27 05:11:00,45.0,44.0,-100.00,South,188,4.0,10.0,98,-99.99,,,-99.99,,2013-01-27 13:11:00,
2013-01-27 05:22:00,45.0,44.0,-100.00,SSW,193,5.0,11.0,98,-99.99,,,-99.99,,2013-01-27 13:22:00,
2013-01-27 05:31:00,45.0,44.0,-100.00,South,189,6.0,10.0,98,-99.99,,,-99.99,,2013-01-27 13:31:00,
2013-01-27 05:41:00,45.0,44.0,-100.00,South,177,5.0,9.0,98,-99.99,,,-99.99,,2013-01-27 13:41:00,
2013-01-27 05:52:00,45.0,44.0,-100.00,SSE,164,5.0,11.0,98,-99.99,,,-99.99,,2013-01-27 13:52:00,
2013-01-27 06:01:00,45.0,44.0,-100.00,SSE,152,5.0,10.0,98,-99.99,,,-99.99,,2013-01-27 14:01:00,
2013-01-27 06:11:00,45.0,44.0,-100.00,South,191,5.0,9.0,98,-99.99,,,-99.99,,2013-01-27 14:11:00,
2013-01-27 06:21:00,45.0,44.0,-100.00,SW,218,3.0,6.0,98,-99.99,,,-99.99,,2013-01-27 14:21:00,
2013-01-27 06:31:00,45.0,44.0,-100.00,WSW,238,5.0,10.0,98,-99.99,,,-99.99,,2013-01-27 14:31:00,
2013-01-27 06:42:00,45.0,44.0,-100.00,WSW,243,5.0,11.0,98,-99.99,,,-99.99,,2013-01-27 14:42:00,
2013-01-27 06:52:00,45.0,44.0,-100.00,SW,218,4.0,8.0,98,-99.99,,,-99.99,,2013-01-27 14:52:00,
2013-01-27 07:01:00,44.0,43.0,-100.00,South,186,7.0,12.0,98,-99.99,,,-99.99,,2013-01-27 15:01:00,
2013-01-27 07:11:00,44.0,43.0,-100.00,South,184,6.0,10.0,98,-99.99,,,-99.99,,2013-01-27 15:11:00,
2013-01-27 07:21:00,44.0,43.0,-100.00,South,189,6.0,10.0,98,-99.99,,,-99.99,,2013-01-27 15:21:00,
2013-01-27 07:32:00,44.0,43.0,-100.00,South,181,5.0,9.0,98,-99.99,,,-99.99,,2013-01-27 15:32:00,
2013-01-27 07:42:00,44.0,43.0,-100.00,South,187,6.0,9.0,98,-99.99,,,-99.99,,2013-01-27 15:42:00,
2013-01-27 07:52:00,44.0,43.0,-100.00,South,187,5.0,8.0,98,-99.99,,,-99.99,,2013-01-27 15:52:00,
2013-01-27 08:01:00,44.0,43.0,-100.00,SE,140,5.0,13.0,98,-99.99,,,-99.99,,2013-01-27 16:01:00,
2013-01-27 08:11:00,44.0,43.0,-100.00,SSE,150,5.0,9.0,98,-99.99,,,-99.99,,2013-01-27 16:11:00,
2013-01-27 08:21:00,44.0,43.0,-100.00,SSE,162,5.0,8.0,98,-99.99,,,-99.99,,2013-01-27 16:21:00,
2013-01-27 08:32:00,44.0,43.0,-100.00,SSE,154,6.0,10.0,98,-99.99,,,-99.99,,2013-01-27 16:32:00,
2013-01-27 08:41:00,44.0,43.0,-100.00,SSE,154,6.0,10.0,98,-99.99,,,-99.99,,2013-01-27 16:41:00,
2013-01-27 08:52:00,44.0,43.0,-100.00,SE,142,6.0,11.0,98,-99.99,,,-99.99,,2013-01-27 16:52:00,
2013-01-27 09:01:00,44.0,43.0,-100.00,SE,139,5.0,9.0,98,-99.99,,,-99.99,,2013-01-27 17:01:00,
2013-01-27 09:11:00,44.0,43.0,-100.00,South,183,5.0,9.0,98,-99.99,,,-99.99,,2013-01-27 17:11:00,
2013-01-27 09:21:00,44.0,43.0,-100.00,SSE,162,5.0,10.0,98,-99.99,,,-99.99,,2013-01-27 17:21:00,
2013-01-27 09:32:00,44.0,43.0,-100.00,South,186,5.0,11.0,98,-99.99,,,-99.99,,2013-01-27 17:32:00,
2013-01-27 09:42:00,43.0,42.0,-100.00,South,174,6.0,10.0,98,-99.99,,,-99.99,,2013-01-27 17:42:00,
2013-01-27 09:52:00,44.0,43.0,-100.00,South,187,6.0,11.0,98,-99.99,,,-99.99,,2013-01-27 17:52:00,
2013-01-27 10:01:00,44.0,43.0,-100.00,South,178,4.0,8.0,98,-99.99,,,-99.99,,2013-01-27 18:01:00,
2013-01-27 10:11:00,44.0,43.0,-100.00,SE,139,6.0,10.0,98,-99.99,,,-99.99,,2013-01-27 18:11:00,
2013-01-27 10:22:00,44.0,43.0,-100.00,SSE,155,7.0,14.0,98,-99.99,,,-99.99,,2013-01-27 18:22:00,
2013-01-27 10:31:00,44.0,43.0,-100.00,SSE,156,4.0,10.0,98,-99.99,,,-99.99,,2013-01-27 18:31:00,
2013-01-27 10:41:00,44.0,43.0,-100.00,South,188,6.0,14.0,98,-99.99,,,-99.99,,2013-01-27 18:41:00,
2013-01-27 10:51:00,44.0,43.0,-100.00,South,175,5.0,10.0,98,-99.99,,,-99.99,,2013-01-27 18:51:00,
2013-01-27 11:01:00,44.0,43.0,-100.00,South,171,6.0,12.0,98,-99.99,,,-99.99,,2013-01-27 19:01:00,
2013-01-27 11:11:00,44.0,43.0,-100.00,SSW,197,6.0,12.0,98,-99.99,,,-99.99,,2013-01-27 19:11:00,
2013-01-27 11:21:00,44.0,43.0,-100.00,South,189,7.0,13.0,98,-99.99,,,-99.99,,2013-01-27 19:21:00,
2013-01-27 11:32:00,43.0,42.0,-100.00,SSW,207,6.0,11.0,98,-99.99,,,-99.99,,2013-01-27 19:32:00,
2013-01-27 11:41:00,43.0,42.0,-100.00,SSW,205,5.0,12.0,98,-99.99,,,-99.99,,2013-01-27 19:41:00,
2013-01-27 11:51:00,43.0,42.0,-100.00,SSW,206,6.0,13.0,98,-99.99,,,-99.99,,2013-01-27 19:51:00,
2013-01-27 12:02:00,43.0,42.0,-100.00,SSW,207,7.0,16.0,98,-99.99,,,-99.99,,2013-01-27 20:02:00,
2013-01-27 12:11:00,43.0,42.0,-100.00,SSW,207,7.0,16.0,98,-99.99,,,-99.99,,2013-01-27 20:11:00,
2013-01-27 12:22:00,43.0,42.0,-100.00,SSW,193,8.0,15.0,98,-99.99,,,-99.99,,2013-01-27 20:22:00,
2013-01-27 12:32:00,43.0,42.0,-100.00,South,181,8.0,13.0,98,-99.99,,,-99.99,,2013-01-27 20:32:00,
2013-01-27 12:41:00,43.0,42.0,-100.00,SSW,204,7.0,13.0,98,-99.99,,,-99.99,,2013-01-27 20:41:00,
2013-01-27 12:52:00,43.0,42.0,-100.00,SSW,210,6.0,14.0,98,-99.99,,,-99.99,,2013-01-27 20:52:00,
2013-01-27 13:01:00,43.0,42.0,-100.00,SSW,206,7.0,15.0,98,-99.99,,,-99.99,,2013-01-27 21:01:00,
2013-01-27 13:11:00,43.0,42.0,-100.00,SSW,198,9.0,14.0,98,-99.99,,,-99.99,,2013-01-27 21:11:00,
2013-01-27 13:22:00,43.0,42.0,-100.00,SW,217,6.0,15.0,98,-99.99,,,-99.99,,2013-01-27 21:22:00,
2013-01-27 13:32:00,42.0,41.0,-100.00,SSW,206,6.0,13.0,98,-99.99,,,-99.99,,2013-01-27 21:32:00,
2013-01-27 13:42:00,42.0,41.0,-100.00,SSW,206,8.0,19.0,98,-99.99,,,-99.99,,2013-01-27 21:42:00,
2013-01-27 13:52:00,42.0,41.0,-100.00,SSW,206,8.0,17.0,98,-99.99,,,-99.99,,2013-01-27 21:52:00,
2013-01-27 14:01:00,41.0,40.0,-100.00,SSW,204,7.0,16.0,98,-99.99,,,-99.99,,2013-01-27 22:01:00,
2013-01-27 14:11:00,41.0,40.0,-100.00,SSW,195,10.0,17.0,98,-99.99,,,-99.99,,2013-01-27 22:11:00,
2013-01-27 14:21:00,41.0,40.0,-100.00,South,191,9.0,16.0,98,-99.99,,,-99.99,,2013-01-27 22:21:00,
2013-01-27 14:31:00,41.0,40.0,-100.00,SSW,202,9.0,13.0,98,-99.99,,,-99.99,,2013-01-27 22:31:00,
2013-01-27 14:42:00,41.0,40.0,-100.00,SSW,202,9.0,13.0,98,-99.99,,,-99.99,,2013-01-27 22:42:00,
2013-01-27 14:51:00,41.0,40.0,-100.00,SSW,199,8.0,15.0,98,-99.99,,,-99.99,,2013-01-27 22:51:00,
2013-01-27 15:01:00,41.0,40.0,-100.00,SSW,199,8.0,15.0,98,-99.99,,,-99.99,,2013-01-27 23:01:00,
2013-01-27 15:11:00,41.0,40.0,-100.00,SSW,207,9.0,17.0,97,-99.99,,,-99.99,,2013-01-27 23:11:00,
2013-01-27 15:21:00,41.0,40.0,-100.00,SSW,202,6.0,14.0,97,-99.99,,,-99.99,,2013-01-27 23:21:00,
2013-01-27 15:31:00,40.0,39.0,-100.00,SW,218,7.0,15.0,97,-99.99,,,-99.99,,2013-01-27 23:31:00,
2013-01-27 15:41:00,40.0,39.0,-100.00,SW,218,7.0,15.0,97,-99.99,,,-99.99,,2013-01-27 23:41:00,
2013-01-27 15:52:00,40.0,39.0,-100.00,SSW,196,8.0,14.0,95,-99.99,,,-99.99,,2013-01-27 23:52:00,
2013-01-27 16:01:00,40.0,39.0,-100.00,SSW,196,8.0,14.0,95,-99.99,,,-99.99,,2013-01-28 00:01:00,
2013-01-27 16:11:00,39.0,38.0,-100.00,SSW,209,7.0,14.0,96,-99.99,,,-99.99,,2013-01-28 00:11:00,
2013-01-27 16:21:00,40.0,38.0,-100.00,SSW,198,7.0,14.0,92,-99.99,,,-99.99,,2013-01-28 00:21:00,
2013-01-27 16:32:00,39.0,37.0,-100.00,SSW,193,7.0,14.0,92,-99.99,,,-99.99,,2013-01-28 00:32:00,
2013-01-27 16:41:00,39.0,37.0,-100.00,SSW,193,7.0,14.0,92,-99.99,,,-99.99,,2013-01-28 00:41:00,
2013-01-27 16:51:00,38.0,36.0,-100.00,South,175,7.0,12.0,94,-99.99,,,-99.99,,2013-01-28 00:51:00,
2013-01-27 17:01:00,38.0,36.0,-100.00,South,175,7.0,12.0,94,-99.99,,,-99.99,,2013-01-28 01:01:00,
2013-01-27 17:11:00,39.0,37.0,-100.00,South,184,6.0,10.0,93,-99.99,,,-99.99,,2013-01-28 01:11:00,
2013-01-27 17:21:00,38.0,37.0,-100.00,South,190,8.0,15.0,95,-99.99,,,-99.99,,2013-01-28 01:21:00,
2013-01-27 17:32:00,38.0,37.0,-100.00,SSW,193,7.0,15.0,96,-99.99,,,-99.99,,2013-01-28 01:32:00,
2013-01-27 17:42:00,38.0,37.0,-100.00,SSW,193,6.0,13.0,95,-99.99,,,-99.99,,2013-01-28 01:42:00,
2013-01-27 17:51:00,37.0,36.0,-100.00,SSW,192,8.0,13.0,96,-99.99,,,-99.99,,2013-01-28 01:51:00,
2013-01-27 18:01:00,37.0,36.0,-100.00,South,190,8.0,15.0,96,-99.99,,,-99.99,,2013-01-28 02:01:00,
2013-01-27 18:11:00,37.0,35.0,-100.00,South,183,8.0,15.0,94,-99.99,,,-99.99,,2013-01-28 02:11:00,
2013-01-27 18:21:00,37.0,35.0,-100.00,South,184,6.0,11.0,93,-99.99,,,-99.99,,2013-01-28 02:21:00,
2013-01-27 18:32:00,37.0,35.0,-100.00,South,176,5.0,9.0,93,-99.99,,,-99.99,,2013-01-28 02:32:00,
2013-01-27 18:41:00,37.0,35.0,-100.00,South,176,4.0,7.0,93,-99.99,,,-99.99,,2013-01-28 02:41:00,
2013-01-27 18:52:00,37.0,35.0,-100.00,South,176,6.0,12.0,94,-99.99,,,-99.99,,2013-01-28 02:52:00,
2013-01-27 19:01:00,37.0,36.0,-100.00,South,183,7.0,15.0,95,-99.99,,,-99.99,,2013-01-28 03:01:00,
2013-01-27 19:11:00,37.0,36.0,-100.00,South,187,8.0,14.0,96,-99.99,,,-99.99,,2013-01-28 03:11:00,
2013-01-27 19:21:00,36.0,35.0,-100.00,SSW,196,9.0,17.0,97,-99.99,,,-99.99,,2013-01-28 03:21:00,
2013-01-27 19:32:00,36.0,35.0,-100.00,South,189,8.0,16.0,97,-99.99,,,-99.99,,2013-01-28 03:32:00,
2013-01-27 19:41:00,36.0,35.0,-100.00,South,181,7.0,15.0,97,-99.99,,,-99.99,,2013-01-28 03:41:00,
2013-01-27 19:52:00,36.0,35.0,-100.00,South,177,9.0,14.0,96,-99.99,,,-99.99,,2013-01-28 03:52:00,
2013-01-27 20:01:00,36.0,35.0,-100.00,SSE,167,5.0,11.0,95,-99.99,,,-99.99,,2013-01-28 04:01:00,
2013-01-27 20:11:00,36.0,35.0,-100.00,South,183,6.0,11.0,95,-99.99,,,-99.99,,2013-01-28 04:11:00,
2013-01-27 20:21:00,36.0,35.0,-100.00,South,182,8.0,14.0,96,-99.99,,,-99.99,,2013-01-28 04:21:00,
2013-01-27 20:31:00,36.0,35.0,-100.00,SSW,205,7.0,17.0,96,-99.99,,,-99.99,,2013-01-28 04:31:00,
2013-01-27 20:41:00,36.0,35.0,-100.00,SSW,196,5.0,13.0,96,-99.99,,,-99.99,,2013-01-28 04:41:00,
2013-01-27 20:52:00,36.0,35.0,-100.00,WSW,242,5.0,12.0,97,-99.99,,,-99.99,,2013-01-28 04:52:00,
2013-01-27 21:03:00,36.0,35.0,-100.00,SSW,199,5.0,11.0,98,-99.99,,,-99.99,,2013-01-28 05:03:00,
2013-01-27 21:11:00,36.0,35.0,-100.00,SSW,195,5.0,9.0,98,-99.99,,,-99.99,,2013-01-28 05:11:00,
2013-01-27 21:21:00,36.0,35.0,-100.00,South,185,8.0,16.0,98,-99.99,,,-99.99,,2013-01-28 05:21:00,
2013-01-27 21:31:00,36.0,35.0,-100.00,SSW,194,7.0,15.0,98,-99.99,,,-99.99,,2013-01-28 05:31:00,
2013-01-27 21:41:00,36.0,35.0,-100.00,South,191,7.0,14.0,98,-99.99,,,-99.99,,2013-01-28 05:41:00,
2013-01-27 21:52:00,36.0,35.0,-100.00,SSW,195,9.0,17.0,98,-99.99,,,-99.99,,2013-01-28 05:52:00,
2013-01-27 22:01:00,36.0,35.0,-100.00,SSW,199,7.0,14.0,98,-99.99,,,-99.99,,2013-01-28 06:01:00,
2013-01-27 22:11:00,36.0,35.0,-100.00,SW,217,4.0,9.0,98,-99.99,,,-99.99,,2013-01-28 06:11:00,
2013-01-27 22:21:00,36.0,35.0,-100.00,SSW,197,6.0,13.0,98,-99.99,,,-99.99,,2013-01-28 06:21:00,
2013-01-27 22:31:00,36.0,35.0,-100.00,SW,216,9.0,17.0,98,-99.99,,,-99.99,,2013-01-28 06:31:00,
2013-01-27 22:42:00,36.0,35.0,-100.00,WSW,242,7.0,17.0,98,-99.99,,,-99.99,,2013-01-28 06:42:00,
2013-01-27 22:52:00,35.0,35.0,-100.00,WSW,237,7.0,13.0,99,-99.99,,,-99.99,,2013-01-28 06:52:00,
2013-01-27 23:02:00,35.0,35.0,-100.00,SSW,211,4.0,9.0,99,-99.99,,,-99.99,,2013-01-28 07:02:00,
2013-01-27 23:11:00,35.0,35.0,-100.00,SSW,192,9.0,16.0,99,-99.99,,,-99.99,,2013-01-28 07:11:00,
2013-01-27 23:21:00,35.0,35.0,-100.00,SSW,195,6.0,12.0,99,-99.99,,,-99.99,,2013-01-28 07:21:00,
2013-01-27 23:31:00,35.0,35.0,-100.00,SSW,200,5.0,13.0,99,-99.99,,,-99.99,,2013-01-28 07:31:00,
2013-01-27 23:41:00,35.0,35.0,-100.00,South,176,4.0,13.0,99,-99.99,,,-99.99,,2013-01-28 07:41:00,
2013-01-27 23:51:00,35.0,35.0,-100.00,South,181,5.0,13.0,99,-99.99,,,-99.99,,2013-01-28 07:51:00,